{"data":{"norad_id":57526,"epoch":"2026-05-24T18:09:13.109472Z","epoch_age_seconds":89400,"freshness":"FRESH","line1":"1 57526U 23115F   26144.75640173 -.00000181  00000+0  29573-5 0  9998","line2":"2 57526  43.0025 292.1305 0001521 264.4675  95.6003 15.27578551153981","mean_motion":15.27578551,"eccentricity":0.0001521,"inclination_deg":43.0025,"raan_deg":292.1305,"arg_perigee_deg":264.4675,"mean_anomaly_deg":95.6003,"bstar":2.9573e-6,"rev_number":15398,"period_min":94.266838131324,"perigee_km":482.00984780521,"apogee_km":484.0970219355,"semimajor_km":6861.1904348704,"source":"CELESTRAK","updated_at":"2026-05-25T13:38:18.332643Z"}}